TimeCST,TemperatureF,Dew PointF,Humidity,Sea Level PressureIn,VisibilityMPH,Wind Direction,Wind SpeedMPH,Gust SpeedMPH,PrecipitationIn,Events,Conditions,WindDirDegrees,DateUTC
12:52 AM,21.0,12.9,71,30.33,10.0,NNW,10.4,-,N/A,,Partly Cloudy,330,2013-02-15 06:52:00
1:52 AM,19.0,10.9,71,30.35,10.0,NW,11.5,-,N/A,,Clear,320,2013-02-15 07:52:00
2:52 AM,17.1,9.0,71,30.37,10.0,NW,6.9,-,N/A,,Clear,310,2013-02-15 08:52:00
3:52 AM,16.0,8.1,71,30.37,10.0,NW,4.6,-,N/A,,Clear,310,2013-02-15 09:52:00
4:52 AM,15.1,10.0,80,30.39,10.0,WNW,5.8,-,N/A,,Clear,290,2013-02-15 10:52:00
5:52 AM,16.0,10.0,77,30.40,10.0,NW,9.2,-,N/A,,Clear,310,2013-02-15 11:52:00
6:52 AM,16.0,10.0,77,30.40,10.0,NNW,8.1,-,N/A,,Mostly Cloudy,330,2013-02-15 12:52:00
7:52 AM,19.0,12.0,74,30.40,9.0,North,4.6,-,0.00,Snow,Light Snow,350,2013-02-15 13:52:00
8:52 AM,21.9,14.0,72,30.41,10.0,Calm,Calm,-,0.00,,Partly Cloudy,0,2013-02-15 14:52:00
9:52 AM,25.0,17.1,72,30.40,10.0,NW,10.4,-,N/A,,Scattered Clouds,320,2013-02-15 15:52:00
10:52 AM,28.0,17.1,63,30.40,10.0,NW,9.2,-,N/A,,Mostly Cloudy,310,2013-02-15 16:52:00
11:52 AM,28.9,17.1,61,30.40,10.0,NW,13.8,-,N/A,,Overcast,320,2013-02-15 17:52:00
12:52 PM,30.9,17.1,57,30.38,10.0,West,5.8,-,N/A,,Overcast,270,2013-02-15 18:52:00
1:52 PM,32.0,15.1,50,30.35,10.0,NW,9.2,16.1,N/A,,Overcast,320,2013-02-15 19:52:00
2:52 PM,33.1,16.0,50,30.34,10.0,NNW,6.9,-,N/A,,Overcast,330,2013-02-15 20:52:00
3:52 PM,30.9,18.0,59,30.34,10.0,North,6.9,-,N/A,,Overcast,10,2013-02-15 21:52:00
4:52 PM,30.0,19.0,64,30.35,9.0,North,5.8,-,0.00,Snow,Light Snow,10,2013-02-15 22:52:00
5:52 PM,28.9,19.0,67,30.35,7.0,NE,10.4,-,0.00,Snow,Light Snow,40,2013-02-15 23:52:00
5:58 PM,28.4,21.2,74,30.31,1.5,NNE,9.2,-,0.00,Snow,Light Snow,30,2013-02-15 23:58:00
6:26 PM,26.6,23.0,86,30.32,1.0,NNE,10.4,-,0.01,Snow,Light Snow,30,2013-02-16 00:26:00
6:52 PM,26.6,23.0,86,30.33,1.0,North,8.1,-,N/A,Snow,Light Snow,10,2013-02-16 00:52:00
7:06 PM,26.6,23.0,86,30.33,2.0,North,8.1,-,0.00,Snow,Light Snow,360,2013-02-16 01:06:00
7:17 PM,26.6,23.0,86,30.33,1.2,North,8.1,-,0.01,Snow,Light Snow,360,2013-02-16 01:17:00
7:52 PM,26.1,23.0,88,30.38,1.5,North,8.1,-,0.02,Snow,Light Snow,360,2013-02-16 01:52:00
8:04 PM,26.6,23.0,86,30.34,0.8,North,8.1,-,0.00,Snow,Light Snow,360,2013-02-16 02:04:00
8:14 PM,26.6,21.2,80,30.34,2.0,NNE,10.4,-,0.01,Snow,Light Snow,20,2013-02-16 02:14:00
8:17 PM,26.6,21.2,80,30.34,3.0,North,10.4,-,0.01,Snow,Light Snow,10,2013-02-16 02:17:00
8:33 PM,24.8,19.4,80,30.34,9.0,North,10.4,-,0.01,Snow,Light Snow,10,2013-02-16 02:33:00
8:52 PM,25.0,19.0,78,30.39,9.0,North,8.1,-,0.01,Snow,Light Snow,360,2013-02-16 02:52:00
9:52 PM,25.0,19.0,78,30.39,9.0,NNW,6.9,-,0.00,Snow,Light Snow,340,2013-02-16 03:52:00
10:34 PM,24.8,19.4,80,30.35,9.0,NW,6.9,-,0.00,Snow,Light Snow,310,2013-02-16 04:34:00
10:52 PM,25.0,19.0,78,30.39,9.0,NNW,11.5,-,0.00,Snow,Light Snow,330,2013-02-16 04:52:00
11:37 PM,21.2,12.2,68,30.35,9.0,North,12.7,-,0.00,,Mostly Cloudy,350,2013-02-16 05:37:00
11:52 PM,19.0,10.9,71,30.39,10.0,NNW,10.4,-,0.00,,Scattered Clouds,340,2013-02-16 05:52:00